Annette Island, AK

5:08 PM AKDT on July 20, 2017 (GMT -0800)
Annette Island

Weather History for PANT - January, 2012

Change the Weather History Date:

Saturday, January 28, 2012

  Actual Average Record
Temperature  
Mean Temperature 37 °F 37 °F  
Max Temperature 40 °F 42 °F 53 °F (1995)
Min Temperature 33 °F 33 °F 5 °F (1969)
Degree Days  
Heating Degree Days 28 28  
Month to date heating degree days 917 784  
Since 1 July heating degree days 4027 3695  
Cooling Degree Days 0    
Month to date cooling degree days 0  
Year to date cooling degree days 0  
Moisture  
Dew Point 36 °F    
Average Humidity 0    
Maximum Humidity 0    
Minimum Humidity 0    
Precipitation  
Precipitation 1.04 in 0.32 in 2.28 in (1960)
Month to date precipitation 11.08 9.78  
Year to date precipitation 11.08 9.78  
Snow  
Snow 0.00 in 0.20 in 4.20 in (2009)
Month to date snowfall 14.1 6.9  
Since 1 July snowfall 18.6  
Snow Depth 0.00 in    
Sea Level Pressure  
Sea Level Pressure 29.53 in    
Wind  
Wind Speed 15 mph (ESE)    
Max Wind Speed 25 mph    
Max Gust Speed 35 mph    
Visibility 5 miles    
Events Rain , Snow    
T = Trace of Precipitation, MM = Missing Value Source: NWS Daily Summary

Daily Weather History Graph

Daily Weather History Graph

Search for Another Location

Airport or City:

Trip Planner

Search our weather history database for the weather conditions in past years. The results will help you decide how hot, cold, wet, or windy it might be!

Date:

Astronomy

Jan. 28, 2012 Rise Set
Actual Time 7:44 AM AKST 4:14 PM AKST
Civil Twilight 7:03 AM AKST 4:55 PM AKST
Nautical Twilight 6:19 AM AKST 5:39 PM AKST
Astronomical Twilight 5:37 AM AKST 6:22 PM AKST
Moon 9:02 AM AKST (1/28) 11:23 PM AKST (1/28)
Length of Visible Light 9h 51m
Length of Day
8h 29m
Waxing Crescent, 29% of the Moon is Illuminated
Jan 28
Waxing Crescent
Jan 30
First Quarter
Feb 7
Full
Feb 14
Last Quarter
Feb 21
New

Hourly Weather History & Observations

Time (AKST) Temp. Windchill Dew Point Humidity Pressure Visibility Wind Dir Wind Speed Gust Speed Precip Events Conditions
12:53 AM 34.0 °F 25.5 °F 32.0 °F 92% 30.04 in 7.0 mi ESE 11.5 mph - 0.04 in Snow Light Snow
1:53 AM 34.0 °F 25.0 °F 33.1 °F 96% 29.98 in 5.0 mi ESE 12.7 mph 21.9 mph 0.06 in Rain Rain
2:45 AM 33.8 °F 24.3 °F 33.8 °F 100% 29.93 in 5.0 mi ESE 13.8 mph 19.6 mph 0.08 in Snow Light Snow
3:01 AM 33.8 °F 25.8 °F 32.0 °F 93% 29.92 in 2.5 mi ESE 10.4 mph - 0.02 in Snow Light Snow
3:11 AM 33.8 °F 24.8 °F 33.8 °F 100% 29.91 in 4.0 mi ESE 12.7 mph 19.6 mph 0.03 in Snow Light Snow
3:53 AM 34.0 °F 25.0 °F 33.1 °F 96% 29.86 in 7.0 mi ESE 12.7 mph 19.6 mph 0.08 in Snow Light Snow
4:53 AM 36.0 °F 26.7 °F 33.1 °F 89% 29.78 in 8.0 mi SE 15.0 mph 20.7 mph 0.06 in Rain Light Rain
5:53 AM 36.0 °F 28.0 °F 34.0 °F 93% 29.70 in 8.0 mi ESE 11.5 mph 20.7 mph 0.06 in Rain Light Rain
6:53 AM 36.0 °F 26.3 °F 33.1 °F 89% 29.64 in 5.0 mi ESE 16.1 mph 24.2 mph 0.12 in Rain Rain
7:51 AM 35.6 °F 25.2 °F 33.8 °F 93% 29.57 in 5.0 mi ESE 18.4 mph 32.2 mph 0.09 in Rain Light Rain
7:53 AM 36.0 °F 25.6 °F 33.1 °F 89% 29.57 in 5.0 mi ESE 18.4 mph 32.2 mph 0.09 in Rain Light Rain
8:53 AM 37.0 °F 26.4 °F 34.0 °F 89% 29.54 in 4.0 mi ESE 20.7 mph 33.4 mph 0.02 in Rain Light Rain
9:11 AM 37.4 °F 26.9 °F 35.6 °F 93% 29.54 in 2.0 mi SE 20.7 mph 31.1 mph 0.00 in Snow Light Snow
9:53 AM 37.0 °F 26.4 °F 35.1 °F 93% 29.52 in 3.0 mi ESE 20.7 mph 32.2 mph 0.02 in Rain Light Rain
10:14 AM 37.4 °F 26.6 °F 35.6 °F 93% 29.51 in 3.0 mi ESE 21.9 mph 29.9 mph 0.00 in Rain Light Rain
10:27 AM 37.4 °F 27.2 °F 35.6 °F 93% 29.50 in 2.5 mi SE 19.6 mph 31.1 mph 0.01 in Rain Light Rain
10:51 AM 37.4 °F 26.6 °F 37.4 °F 100% 29.50 in 2.5 mi SE 21.9 mph 29.9 mph 0.02 in Rain Light Rain
10:53 AM 37.9 °F 27.6 °F 37.0 °F 97% 29.50 in 2.5 mi SE 20.7 mph 29.9 mph 0.02 in Rain Light Rain
11:21 AM 39.2 °F 29.8 °F 37.4 °F 93% 29.48 in 2.5 mi SE 18.4 mph 29.9 mph 0.01 in Rain Light Rain
11:53 AM 39.0 °F 29.6 °F 37.9 °F 96% 29.46 in 2.0 mi ESE 18.4 mph 26.5 mph 0.04 in Rain Light Rain
12:15 PM 39.2 °F 29.3 °F 37.4 °F 93% 29.44 in 3.0 mi SE 20.7 mph 29.9 mph 0.01 in Rain Light Rain
12:53 PM 39.0 °F 31.0 °F 37.9 °F 96% 29.42 in 4.0 mi ESE 13.8 mph 26.5 mph 0.06 in Rain Light Rain
1:53 PM 39.9 °F 30.8 °F 37.9 °F 93% 29.37 in 5.0 mi ESE 18.4 mph 27.6 mph 0.12 in Rain Rain
2:53 PM 39.0 °F 29.6 °F 37.9 °F 96% 29.33 in 5.0 mi ESE 18.4 mph 31.1 mph 0.14 in Rain Rain
3:53 PM 39.9 °F 30.5 °F 37.9 °F 93% 29.30 in 5.0 mi ESE 19.6 mph 29.9 mph 0.12 in Rain Light Rain
4:53 PM 39.9 °F 30.8 °F 37.9 °F 93% 29.27 in 6.0 mi ESE 18.4 mph 28.8 mph 0.10 in Rain Light Rain
5:53 PM 39.9 °F 30.8 °F 39.0 °F 97% 29.24 in 8.0 mi ESE 18.4 mph 27.6 mph 0.05 in Rain Light Rain
6:53 PM 41.0 °F 31.9 °F 39.0 °F 93% 29.22 in 10.0 mi ESE 19.6 mph 26.5 mph 0.05 in Rain Light Rain
7:53 PM 41.0 °F 33.1 °F 39.0 °F 93% 29.22 in 9.0 mi ESE 15.0 mph 23.0 mph 0.06 in Rain Rain
9:53 PM 41.0 °F 34.3 °F 39.9 °F 96% 29.20 in 8.0 mi ESE 11.5 mph 24.2 mph 0.10 in Rain Rain
10:53 PM 41.0 °F 33.5 °F 39.9 °F 96% 29.19 in 8.0 mi ESE 13.8 mph 23.0 mph 0.09 in Rain Light Rain
11:53 PM 41.0 °F 33.1 °F 39.9 °F 96% 29.19 in 4.0 mi ESE 15.0 mph 20.7 mph 0.05 in Rain Light Rain